COSMOS 1275 DEB, 39935

Orbit data source: Space-Track

COSMOS 1275 DEB, 39935 is space debris in LEO originally from a launch on Thu, 04 Jun 1981 UTC launched from the Plesetsk Missile And Space Complex (PKMTR). Debris objects in space refer to the collection of defunct objects orbiting the Earth. Examples of debris include non-operational satellites, rocket bodies, and fragments generated from explosions, collisions, or faulty payload assembly.

Loading next visibility...
Identifier
39935, 1981-053MV
Orbit
LEO
Country
Flag of CISCIS
Related business
Manufacturer
Unknown
Mission
Spacecraft
Bus & Motor
Unknown
Mass
Unknown
Launch date (UTC)
1981-06-04 (45 years ago)
Launch vehicle
Unknown
Launch site
Plesetsk Missile And Space Complex (PKMTR)
Object type
Payload
Rocket body
Debris
Shape & HBR
Unknown shape, 0.1 m
Radar Cross Section
Small (<0.1 m²)

Expand to show TLE details & history
Last TLE update: 2 days ago

TLE from 2 days ago
0 COSMOS 1275 DEB
1 39935U 81053MV  26142.87108748  .00000646  00000-0  44566-3 0  9998
2 39935  82.8251 178.9430 0034291 206.5669 333.3656 13.97574631608540
Epoch: 2026-05-22T20:54Z
TLE epoch observation values (Epoch: 2026-05-22T20:54:21.958Z)
Latitude
0.12713°
Longitude
164.83987°
Altitude
882.815 km
Speed
7.422 km/s
True Right ascension
23h 55m 42s
True Declination
0° 07' 35"
Sunlit
Object was in daylight at epoch
Visualization orbit readout
Latitude
Unknown
Longitude
Unknown
Altitude
Unknown
Speed
Unknown
Apparent Right ascension
Unknown
Apparent Declination
Unknown
Sunlit
N/A
Visualization observer readout
Local Sidereal Time
17:36:12
Azimuth
Unknown
Elevation
Unknown
Doppler factor
Unknown
Orbital elements
Apogee altitude
924.283 km
Perigee altitude
874.373 km
Semi-major axis
7,277.465 km
Eccentricity
0.00343
Inclination
82.8251°
RAAN
178.943°
Arg. of periapsis
206.5669°
True anomaly
333.18877°
Mean anomaly
333.3656°
Eccentric anomaly
333.27725°
Mean motion
3.49601 °/min
Orbital period
102.97 mins
BSTAR
0.00044566
Loading maneuver chart data...
Computing Atmospheric mass density...
Loading historical data...
Loading historical data...
Loading historical data...
Loading historical data...
Loading historical data...
Loading historical data...
Loading historical data...

Documentation

Showing up to 5 results
|